Location: ????????
(60.4333°N, 46.4710°E)
Time: 03:58:33
(UTC+00:00)

COSMOS 2428 - Pass Details

Date: 25 November 2020
Orbit: 848 x 855 km, 70.9° (Epoch: 19 January)

Event Time Altitude Azimuth Distance (km) Brightness Sun altitude
Rises 13:32:54 0° 193° (SSW) 3,419 6.5 -10.1°
Reaches altitude 10° 13:35:25 10° 188° (S) 2,486 5.6 -10.4°
Maximum altitude 13:40:51 47° 117° (ESE) 1,132 3.1 -11.0°
Enters shadow 13:45:39 13° 47° (NE) 2,267 4.4 -11.5°
